Location: Bauerbach
(50.4985°N, 10.3912°E)
Time: 14:20:56
(UTC+00:00)

Cosmos 2084 Rocket - Visible Passes

Search period start: 11 April 2026 00:00
Search period end: 21 April 2026 00:00
Orbit: 535 x 576 km, 62.8° (Epoch: 10 April)

Date Brightness Start Highest point End Pass type
(mag) Time Alt. Az. Time Alt. Az. Time Alt. Az.
11 Apr 6.1 00:54:54 11° NW 00:57:24 16° N 01:00:03 10° NNE visible
11 Apr 6.1 02:34:39 10° NNW 02:37:34 18° NNE 02:40:30 10° ENE visible
11 Apr 5.4 23:15:19 26° N 23:15:19 26° N 23:18:06 10° NNE visible
12 Apr 6.2 00:51:52 10° NW 00:54:24 16° N 00:56:57 10° NNE visible
12 Apr 6.0 02:31:26 10° NNW 02:34:32 20° NNE 02:37:39 10° ENE visible
12 Apr 5.7 21:35:33 15° NE 21:35:33 15° NE 21:36:20 10° NE visible
12 Apr 5.4 23:11:16 25° NNW 23:11:22 25° NNW 23:14:51 10° NNE visible
13 Apr 6.3 00:48:54 10° NW 00:51:23 15° N 00:53:53 10° NE visible
13 Apr 5.9 02:28:13 10° NNW 02:31:29 22° NNE 02:34:47 10° ENE visible
13 Apr 4.9 21:31:08 27° NE 21:31:08 27° NE 21:33:06 10° NE visible
13 Apr 5.7 23:06:48 18° NW 23:08:18 22° NNW 23:11:36 10° NNE visible
14 Apr 6.3 00:45:54 10° NW 00:48:23 15° N 00:50:53 10° NE visible
14 Apr 5.8 02:24:58 10° NNW 02:28:25 24° NNE 02:31:54 10° E visible
14 Apr 5.4 19:50:04 12° ENE 19:50:04 12° ENE 19:50:33 10° ENE visible
14 Apr 3.7 21:25:37 61° NW 21:25:46 61° NW 21:29:52 10° NE visible
14 Apr 5.9 23:02:09 10° WNW 23:05:14 20° NNW 23:08:21 10° NNE visible
15 Apr 6.4 00:42:51 10° NNW 00:45:22 15° N 00:47:55 10° NE visible
15 Apr 5.5 02:21:42 10° NNW 02:25:20 28° NNE 02:28:59 10° E visible
15 Apr 4.1 19:40:33 10° S 19:44:02 28° ESE 19:47:35 10° ENE visible
15 Apr 4.2 21:18:37 10° WSW 21:22:35 49° NW 21:26:37 10° NE visible
15 Apr 6.1 22:59:16 10° WNW 23:02:11 18° NNW 23:05:08 10° NNE visible
16 Apr 6.3 00:39:44 10° NNW 00:42:21 16° N 00:45:00 10° NE visible
16 Apr 5.3 02:18:26 10° NNW 02:22:13 32° NNE 02:26:03 10° E visible
16 Apr 3.8 19:36:58 10° SSW 19:40:43 37° SE 19:44:31 10° ENE visible
16 Apr 4.6 21:15:33 10° WSW 21:19:25 40° NW 21:23:21 10° NE visible
16 Apr 6.2 22:56:23 10° NW 22:59:09 17° NNW 23:01:56 10° NNE visible
17 Apr 6.3 00:36:34 10° NNW 00:39:20 17° NNE 00:42:06 10° NE visible
17 Apr 4.9 02:15:09 10° NW 02:19:05 38° NE 02:23:03 10° ESE visible
17 Apr 3.5 19:33:30 10° SSW 19:37:24 48° SE 19:41:23 10° NE visible
17 Apr 5.0 21:12:32 10° W 21:16:17 33° NNW 21:20:05 10° NE visible
17 Apr 6.3 22:53:30 10° NW 22:56:07 16° N 22:58:46 10° NNE visible
18 Apr 6.2 00:33:23 10° NNW 00:36:18 18° NNE 00:39:13 10° ENE visible
18 Apr 4.5 02:11:52 10° NW 02:15:56 46° NE 02:20:01 10° ESE visible
18 Apr 3.2 19:30:07 10° SSW 19:34:07 64° SE 19:38:13 10° NE visible
18 Apr 5.4 21:09:33 10° W 21:13:10 29° NNW 21:16:48 10° NNE visible
18 Apr 6.4 22:50:34 10° NW 22:53:05 16° N 22:55:38 10° NNE visible
19 Apr 6.1 00:30:09 10° NNW 00:33:14 20° NNE 00:36:20 10° ENE visible
19 Apr 4.1 02:08:36 10° NW 02:12:45 56° NE 02:16:55 10° ESE visible
19 Apr 3.2 19:26:48 10° SW 19:30:51 83° SE 19:35:00 10° NE visible
19 Apr 5.7 21:06:37 10° W 21:10:03 25° NNW 21:13:31 10° NNE visible
19 Apr 6.4 22:47:35 10° NW 22:50:04 15° N 22:52:34 10° NE visible
20 Apr 5.9 00:26:53 10° NNW 00:30:10 22° NNE 00:33:27 10° ENE visible
20 Apr 3.6 02:05:21 10° NW 02:09:33 71° NE 02:13:46 10° SE visible
20 Apr 3.5 19:23:33 10° SW 19:27:37 78° NW 19:31:46 10° NE visible
20 Apr 5.9 21:03:41 10° WNW 21:06:57 22° NNW 21:10:15 10° NNE visible
20 Apr 6.4 22:44:33 10° NW 22:47:02 15° N 22:49:32 10° NE visible
